This demonstration page uses our WeatherBlox Daily Observations layout. Learn more.

40.92945, -100.16068

Hourly Observations for August 31, 2018

Temp ( °F °C ) Dew Point ( °F °C ) Humidity (%) Winds ( mph kmh ) Pressure ( in mb ) Visibility ( mi km ) Precip ( " mm )
12:15 am 00:15 Clear 71 21.9 69 20.3 91 91 SE 7 11 29.83 1010 10 16.0934 0 0
12:35 am 00:35 Clear 70 21.3 68 20 92 92 SSE 7 11 29.8 1009 10 16.0934 0 0
12:55 am 00:55 Clear 70 21.2 68 20 93 93 SSE 5 7 29.8 1009 10 16.0934 0 0
1:15 am 01:15 Clear 70 21 68 20 94 94 SE 5 7 29.8 1009 10 16.0934 0 0
1:35 am 01:35 Clear 70 21.3 68 20.1 93 93 SSE 6 9 29.8 1009 10 16.0934 0 0
1:55 am 01:55 Clear 69 20.7 67 19.5 93 93 SSE 6 9 29.8 1009 7 11.26538 0 0
2:15 am 02:15 Clear 69 20.5 67 19.5 94 94 SSE 6 9 29.8 1009 10 16.0934 0 0
2:35 am 02:35 Clear 69 20.3 67 19.3 94 94 SSE 6 9 29.77 1008 7 11.26538 0 0
2:55 am 02:55 Clear 69 20.5 67 19.6 95 95 SE 6 9 29.77 1008 10 16.0934 0 0
3:15 am 03:15 Clear 69 20.3 67 19.3 94 94 SE 7 11 29.74 1007 7 11.26538 0 0
3:35 am 03:35 Clear 69 20.4 67 19.5 95 95 SSE 6 9 29.74 1007 7 11.26538 0 0
3:55 am 03:55 Clear 69 20.5 67 19.6 95 95 SE 3 6 29.74 1007 10 16.0934 0 0
4:15 am 04:15 Clear 69 20.5 67 19.5 94 94 SE 5 7 29.74 1007 10 16.0934 0 0
4:35 am 04:35 Clear with Mist and Fog 66 19.1 65 18.1 94 94 NNE 5 7 29.74 1007 4 6.43736 0 0
4:55 am 04:55 Clear with Mist and Fog 66 19 65 18.1 95 95 Calm 29.74 1007 3 4.82802 0 0
5:15 am 05:15 Partly Cloudy with Mist and Fog 66 18.8 64 18 95 95 Calm 29.74 1007 3 4.82802 0 0
5:35 am 05:35 Clear with Mist and Fog 65 18.5 64 17.8 96 96 Calm 29.74 1007 2.5 4.02335 0 0
5:55 am 05:55 Clear with Mist and Fog 65 18.4 64 17.7 96 96 Calm 29.74 1007 3 4.82802 0 0
6:15 am 06:15 Clear with Mist and Fog 65 18.5 64 17.7 95 95 NE 6 9 29.74 1007 3 4.82802 0 0
6:35 am 06:35 Clear with Mist and Fog 65 18.6 64 18 96 96 E 6 9 29.71 1006 3 4.82802 0 0
6:55 am 06:55 Clear with Mist and Fog 66 19 65 18.3 96 96 ESE 6 9 29.71 1006 3 4.82802 0 0
7:15 am 07:15 Mostly Cloudy with Light Thunderstorms 67 19.5 66 18.8 96 96 SSW 6 9 29.71 1006 5 8.0467 0 0
7:35 am 07:35 Partly Cloudy with Light Thunderstorms 68 19.8 66 19.1 96 96 WSW 7 11 29.74 1007 5 8.0467 0.02 0.508
7:55 am 07:55 Sunny with Nearby Thunderstorms 68 20.1 66 18.9 93 93 SE 3 6 29.68 1005 10 16.0934 0.02 0.508
8:15 am 08:15 Partly Cloudy with Nearby Thunderstorms 68 20 66 18.7 92 92 Calm 29.71 1006 10 16.0934 0 0
8:35 am 08:35 Partly Cloudy with Light Thunderstorms 69 20.4 66 18.9 91 91 Calm 29.71 1006 10 16.0934 0.01 0.254
8:55 am 08:55 Partly Cloudy with Light Thunderstorms 68 20.1 66 18.7 92 92 NNE 5 7 29.71 1006 10 16.0934 0.01 0.254
9:15 am 09:15 Sunny with Nearby Thunderstorms 68 20.1 66 18.8 92 92 E 6 9 29.71 1006 10 16.0934 0 0
9:35 am 09:35 Sunny with Nearby Thunderstorms 69 20.3 66 18.9 92 92 ESE 8 13 29.71 1006 10 16.0934 0 0
9:55 am 09:55 Sunny 70 21.2 66 18.8 86 86 WNW 7 11 29.74 1007 10 16.0934 0 0
10:15 am 10:15 Sunny 70 21.3 67 19.2 88 88 N 6 9 29.74 1007 10 16.0934 0 0
10:35 am 10:35 Sunny 72 22.3 68 20 87 87 NE 3 6 29.71 1006 10 16.0934 0 0
10:55 am 10:55 Sunny 74 23.5 67 19.6 79 79 Calm 29.71 1006 10 16.0934 0 0
11:15 am 11:15 Sunny 76 24.7 68 20 75 75 Calm 29.71 1006 10 16.0934 0 0
11:35 am 11:35 Sunny 78 25.5 68 19.9 71 71 Calm 29.68 1005 10 16.0934 0 0
11:55 am 11:55 Sunny 80 26.8 67 19.4 64 64 SE 5 7 29.65 1004 10 16.0934 0 0
12:15 pm 12:15 Sunny 82 28 67 19.3 59 59 SSE 6 9 29.68 1005 10 16.0934 0 0
12:35 pm 12:35 Sunny 83 28.6 66 18.7 55 55 SE 6 9 29.68 1005 10 16.0934 0 0
12:55 pm 12:55 Sunny 84 28.9 66 18.8 54 54 SE 7 11 29.62 1003 10 16.0934 0 0
1:15 pm 13:15 Sunny 86 29.9 66 18.9 52 52 SE 6 9 29.62 1003 10 16.0934 0 0
1:35 pm 13:35 Sunny 87 30.3 64 18 48 48 ESE 10 17 29.62 1003 10 16.0934 0 0
1:55 pm 13:55 Sunny 88 30.9 62 16.7 42 42 SE 13 20 29.62 1003 10 16.0934 0 0
2:15 pm 14:15 Sunny 87 30.7 62 16.6 43 43 ESE 10 17 29.62 1003 10 16.0934 0 0
2:35 pm 14:35 Sunny 89 31.7 64 17.5 43 43 ESE 9 15 29.62 1003 10 16.0934 0 0
2:55 pm 14:55 Sunny 89 31.6 61 15.9 39 39 SE 12 19 29.62 1003 10 16.0934 0 0
3:15 pm 15:15 Sunny 89 31.5 61 16 39 39 ESE 12 19 29.62 1003 10 16.0934 0 0
3:35 pm 15:35 Sunny 89 31.9 63 17.4 42 42 SE 9 15 29.62 1003 10 16.0934 0 0
3:55 pm 15:55 Sunny 87 30.3 62 16.4 43 43 SE 10 17 29.59 1002 10 16.0934 0 0
4:15 pm 16:15 Sunny 89 31.4 62 16.5 41 41 ESE 8 13 29.59 1002 10 16.0934 0 0
4:35 pm 16:35 Sunny 89 31.8 63 17.3 42 42 ESE 6 9 29.56 1001 10 16.0934 0 0
4:55 pm 16:55 Sunny 89 31.5 66 18.8 47 47 SE 9 15 29.59 1002 10 16.0934 0 0
5:15 pm 17:15 Sunny 87 30.6 67 19.5 52 52 SSE 10 17 29.59 1002 10 16.0934 0 0
5:35 pm 17:35 Sunny 88 31 68 19.9 52 52 SSE 9 15 29.59 1002 10 16.0934 0 0
5:55 pm 17:55 Sunny 87 30.5 67 19.5 52 52 SSE 8 13 29.59 1002 10 16.0934 0 0
6:15 pm 18:15 Sunny 85 29.7 68 20.1 56 56 SSE 6 9 29.59 1002 10 16.0934 0 0
6:35 pm 18:35 Sunny 84 28.9 70 21 62 62 SE 5 7 29.59 1002 10 16.0934 0 0
6:55 pm 18:55 Sunny 85 29.2 70 21.3 62 62 Calm 29.59 1002 10 16.0934 0 0
7:15 pm 19:15 Sunny 82 28 70 21.2 67 67 ESE 5 7 29.62 1003 10 16.0934 0 0
7:35 pm 19:35 Sunny 79 26.3 71 21.6 75 75 ENE 5 7 29.62 1003 10 16.0934 0 0
7:55 pm 19:55 Sunny 78 25.6 71 21.8 80 80 NE 3 6 29.62 1003 10 16.0934 0 0
8:15 pm 20:15 Clear 76 24.4 71 21.5 84 84 NE 6 9 29.65 1004 10 16.0934 0 0
8:35 pm 20:35 Clear 75 24 70 21.3 85 85 NE 6 9 29.68 1005 10 16.0934 0 0
8:55 pm 20:55 Clear 77 25 71 21.8 82 82 NNE 8 13 29.65 1004 10 16.0934 0 0
9:15 pm 21:15 Clear 76 24.5 72 22 86 86 NNE 6 9 29.71 1006 10 16.0934 0 0
9:35 pm 21:35 Clear 75 23.9 71 21.7 88 88 NNE 7 11 29.68 1005 10 16.0934 0 0
9:55 pm 21:55 Clear 74 23.6 71 21.9 90 90 NE 7 11 29.68 1005 10 16.0934 0 0
10:15 pm 22:15 Clear 75 23.7 72 22 90 90 Calm 29.71 1006 10 16.0934 0 0
10:35 pm 22:35 Clear 75 23.8 72 22.1 90 90 ENE 5 7 29.71 1006 10 16.0934 0 0
10:55 pm 22:55 Clear 74 23.5 72 22 91 91 NE 5 7 29.71 1006 10 16.0934 0 0
11:15 pm 23:15 Partly Cloudy 74 23.5 72 22 91 91 NNW 16 26 29.77 1008 10 16.0934 0 0
11:35 pm 23:35 Partly Cloudy 76 24.2 65 18.6 71 71 NNW 12 19 29.77 1008 10 16.0934 0 0
11:55 pm 23:55 Mostly Cloudy with Light Thunderstorms 74 23.5 61 15.9 62 62 N 6 9 29.77 1008 10 16.0934 0 0

Powered by AerisWeather